Location: Shandelee
(41.8790°N, 74.8713°W)
Time: 04:33:57
(UTC+00:00)

MOS 1 Rocket - Pass Details

Date: 29 October 2020
Orbit: 615 x 829 km, 97.4° (Epoch: 23 November)

Event Time Altitude Azimuth Distance (km) Brightness Sun altitude
Rises 23:01:31 0° 24° (NNE) 3,073 6.3 -12.6°
Reaches altitude 10° 23:04:01 10° 36° (NE) 2,188 5.5 -13.0°
Maximum altitude 23:08:09 28° 95° (E) 1,361 4.2 -13.8°
Drops below altitude 10° 23:12:27 10° 154° (SSE) 2,292 5.8 -14.6°
Sets 23:15:07 0° 166° (SSE) 3,248 6.7 -15.1°
